Weather History for KBRL - July, 2013

Change the Weather History Date:

Thursday, July 25, 2013

  Actual Average Record
Temperature  
Mean Temperature 69 °F 77 °F  
Max Temperature 82 °F 87 °F 107 °F (1936)
Min Temperature 56 °F 67 °F 53 °F (1911)
Degree Days  
Heating Degree Days 0 0  
Month to date heating degree days 0 0  
Since 1 June heating degree days 15 13  
Since 1 July heating degree days 0 0  
Cooling Degree Days 4 12  
Month to date cooling degree days 281 300  
Year to date cooling degree days 588 663  
Since 1 June cooling degree days 489 560  
Growing Degree Days 20 (Base 50)    
Moisture  
Dew Point 59 °F    
Average Humidity 72    
Maximum Humidity 93    
Minimum Humidity 50    
Precipitation  
Precipitation T in 0.12 in 2.84 in (1992)
Month to date precipitation 0.28 3.46  
Year to date precipitation 25.75 22.19  
Sea Level Pressure  
Sea Level Pressure 30.06 in    
Wind  
Wind Speed 5 mph (South)    
Max Wind Speed 12 mph    
Max Gust Speed 16 mph    
Visibility 10 miles    
Events Rain    
T = Trace of Precipitation, MM = Missing Value Source: NWS Daily Summary

Daily Weather History Graph

Daily Weather History Graph

Search for Another Location

Airport or City:

Trip Planner

Search our weather history database for the weather conditions in past years. The results will help you decide how hot, cold, wet, or windy it might be!

Date:

Astronomy

Jul. 25, 2013 Rise Set
Actual Time 5:54 AM CDT 8:26 PM CDT
Civil Twilight 5:23 AM CDT 8:58 PM CDT
Nautical Twilight 4:44 AM CDT 9:37 PM CDT
Astronomical Twilight 4:00 AM CDT 10:20 PM CDT
Moon 10:05 PM CDT (7/25) 9:26 AM CDT (7/25)
Length of Visible Light 15h 34m
Length of Day
14h 32m
Waning Gibbous, 88% of the Moon is Illuminated
Jul 25
Waning Gibbous
Jul 29
Last Quarter
Aug 6
New
Aug 14
First Quarter
Aug 20
Full

Hourly Weather History & Observations

Time (CDT) Temp. Heat Index Dew Point Humidity Pressure Visibility Wind Dir Wind Speed Gust Speed Precip Events Conditions
12:53 AM 59.0 °F - 57.0 °F 93% 30.05 in 10.0 mi Calm Calm - N/A   Clear
1:53 AM 60.1 °F - 55.9 °F 86% 30.04 in 10.0 mi Calm Calm - N/A   Clear
2:53 AM 59.0 °F - 55.9 °F 90% 30.05 in 10.0 mi Calm Calm - N/A   Clear
3:53 AM 57.9 °F - 55.9 °F 93% 30.06 in 10.0 mi Calm Calm - N/A   Clear
4:53 AM 57.0 °F - 55.0 °F 93% 30.07 in 10.0 mi Calm Calm - N/A   Clear
5:53 AM 57.0 °F - 54.0 °F 89% 30.08 in 10.0 mi Calm Calm - N/A   Clear
6:53 AM 61.0 °F - 57.9 °F 90% 30.09 in 10.0 mi WSW 3.5 mph - N/A   Clear
7:53 AM 66.0 °F - 57.0 °F 73% 30.09 in 10.0 mi South 3.5 mph - N/A   Clear
8:53 AM 69.1 °F - 59.0 °F 70% 30.09 in 10.0 mi SSW 4.6 mph - N/A   Clear
9:53 AM 72.0 °F - 59.0 °F 64% 30.10 in 10.0 mi South 3.5 mph - N/A   Clear
10:53 AM 75.0 °F - 57.9 °F 55% 30.11 in 10.0 mi SSW 4.6 mph - N/A   Clear
11:53 AM 77.0 °F - 57.9 °F 52% 30.10 in 10.0 mi Variable 3.5 mph - N/A   Clear
12:53 PM 79.0 °F - 60.1 °F 52% 30.09 in 10.0 mi South 6.9 mph - N/A   Clear
1:53 PM 79.0 °F - 60.1 °F 52% 30.08 in 10.0 mi SSE 5.8 mph - N/A   Partly Cloudy
2:53 PM 80.1 °F 80.9 °F 60.1 °F 50% 30.06 in 10.0 mi SSE 9.2 mph - N/A   Partly Cloudy
3:53 PM 82.0 °F 83.0 °F 62.1 °F 51% 30.05 in 10.0 mi South 6.9 mph - N/A   Clear
5:53 PM 78.1 °F - 62.1 °F 58% 30.04 in 10.0 mi South 8.1 mph - N/A   Clear
6:53 PM 77.0 °F - 62.1 °F 60% 30.04 in 10.0 mi South 8.1 mph - N/A   Clear
7:53 PM 75.0 °F - 61.0 °F 62% 30.03 in 10.0 mi South 8.1 mph - N/A   Clear
8:53 PM 73.9 °F - 61.0 °F 64% 30.03 in 10.0 mi South 11.5 mph - N/A   Clear
9:53 PM 73.9 °F - 61.0 °F 64% 30.03 in 10.0 mi South 9.2 mph - N/A   Clear
10:53 PM 73.0 °F - 61.0 °F 66% 30.04 in 10.0 mi South 6.9 mph - N/A   Mostly Cloudy
11:53 PM 70.0 °F - 63.0 °F 78% 30.03 in 8.0 mi South 5.8 mph - 0.00 in Rain Light Rain